Погода в Санта-Крус-де-Бараона

Доминиканская Республика     18°12′26″N   71°06′00″W
темп.,
°C
ветер,
м/с
пор.,
м/с
влажн.,
%
обл.,
%
осадки,
мм/ч
давл.,
гПа
погр.,
м
13 июня, вс
вс1323:00+25вюв238612 0.3 1017403
02:00+25вюв23871 0.7 1015301
05:00+25вюв22845 0.1 1015333
08:00+25вюв12803 0.1 1017402
11:00+26ююв34734 0.0 1017520
14:00+27ююв56755 0.0 1016589
17:00+27юв56775 0.0 1015601
20:00+26юв458411 0.0 1016523
14 июня, пн
пн1423:00+25юв23877 0.4 1017228
02:00+25вюв348557 1.0 1016388
05:00+25юв238513 0.3 1016323
08:00+25ююв128131 0.3 1017359
11:00+26ююв457514 0.0 1017596
14:00+27юв67775 0.0 1017630
17:00+27юв68764 0.1 1016632
20:00+26юв47857 0.1 1017436
15 июня, вт
вт1523:00+25юв3484100 0.0 1018357
02:00+25ююв127946 0.0 1017273
05:00+25юз11778 0.1 1017121
08:00+26юв247194 0.1 1019464
11:00+27юв577582 0.4 1019723
14:00+27юв6877100 0.8 1018597
17:00+27юв797983 0.1 1017632
20:00+26юв588425 0.1 1018434
16 июня, ср
ср1623:00+26юв588310 0.0 1019533
02:00+25юв35819 0.1 1017470
05:00+24юв128410 0.1 1017254
08:00+26вюв23735 0.2 1018392
11:00+27ююв45735 0.0 1018628
14:00+27юв68735 0.0 1017624
17:00+27юв68716 0.0 1016669
20:00+26юв478412 0.0 1017478
17 июня, чт
чт1723:00+26юв47845 0.0 1018549
02:00+25вюв36815 0.1 1016500
05:00+24юз018132 0.1 1016230
08:00+26сз117457 0.1 1017253
11:00+27ююв557186 0.0 1017579
14:00+27ююв577257 0.0 1016583
17:00+27ююв587618 0.0 1014640
20:00+26юв368489 0.1 1016463